Olympia, WA
on Friday, February 15, 2013

Friday
Previous Day Next Day
Daily Summary
 ActualAverageRecord
Temperature
Mean Temperature °F / °C 41°F / 5°C  
Max Temperature 56°F / 13°C 49°F / 9°C 62°F / 16°C (1996)
Min Temperature 31°F / -1°C 33°F / 1°C 10°F / -12°C (1956)
Degree Days
Heating Degree Days 21 24  
Month to date heating degree days 345 361  
Since 1 July heating degree days 3383 3412  
Cooling Degree Days 0 0  
Month to date cooling degree days 0 0  
Year to date cooling degree days 0 0  
Moisture
Dew Point 40°F / 4°C   
Average Humidity 81    
Maximum Humidity 100    
Minimum Humidity 61    
Precipitation
Precipitation 0.00 in / 0.00 cm 0.17 in / 4.32 cm 2.18 in / 5.54 cm (1970)
Month to date precipitation 0.60 2.96  
Year to date precipitation 4.51 10.80  
Wind
Wind Speed 5 mph / 9 km/h   
Max Wind Speed 12 mph / 19 km/h   
Max Gust Speed 17 mph / 27 km/h   
Visibility 5 miles / 9 kilometers   
Events Fog   

Key: T is trace of precipitation, MM is missing value
Source: NWS Daily Summary
Time(PST)TemperatureDew PointHumidity Pressure Visibility Wind DirectionWind SpeedGust SpeedPrecipitationEvents Conditions
12:17 AM 45.0°F / 7.2°C 44.1°F / 6.7°C 97% 30.54 in / 1034.1 hPa 2.5 miles / 4.0 kilometers Calm Calm - N/A   Overcast
12:54 AM 45.0°F / 7.2°C 45.0°F / 7.2°C 100% 30.54 in / 1034.2 hPa 2.0 miles / 3.2 kilometers NNE 4.6 mph / 7.4 km/h - N/A   Overcast
1:20 AM 45.0°F / 7.2°C 45.0°F / 7.2°C 100% 30.53 in / 1033.7 hPa 3.0 miles / 4.8 kilometers NNE 5.8 mph / 9.3 km/h - N/A   Overcast
1:54 AM 45.0°F / 7.2°C 45.0°F / 7.2°C 100% 30.53 in / 1033.8 hPa 4.0 miles / 6.4 kilometers NNE 5.8 mph / 9.3 km/h - N/A   Overcast
2:54 AM 45.0°F / 7.2°C 44.1°F / 6.7°C 97% 30.52 in / 1033.5 hPa 5.0 miles / 8.0 kilometers North 4.6 mph / 7.4 km/h - N/A   Overcast
3:14 AM 45.0°F / 7.2°C 44.1°F / 6.7°C 97% 30.51 in / 1033.1 hPa 6.0 miles / 9.7 kilometers North 4.6 mph / 7.4 km/h - N/A   Overcast
3:54 AM 45.0°F / 7.2°C 44.1°F / 6.7°C 97% 30.50 in / 1032.8 hPa 6.0 miles / 9.7 kilometers North 5.8 mph / 9.3 km/h - N/A   Overcast
4:45 AM 45.0°F / 7.2°C 44.1°F / 6.7°C 97% 30.48 in / 1032.1 hPa 6.0 miles / 9.7 kilometers North 6.9 mph / 11.1 km/h - N/A   Overcast
4:54 AM 45.0°F / 7.2°C 44.1°F / 6.7°C 97% 30.49 in / 1032.3 hPa 6.0 miles / 9.7 kilometers North 8.1 mph / 13.0 km/h - N/A   Overcast
5:54 AM 45.0°F / 7.2°C 44.1°F / 6.7°C 97% 30.48 in / 1032.0 hPa 7.0 miles / 11.3 kilometers NNE 5.8 mph / 9.3 km/h - N/A   Overcast
6:06 AM 45.0°F / 7.2°C 44.1°F / 6.7°C 97% 30.47 in / 1031.7 hPa 8.0 miles / 12.9 kilometers North 6.9 mph / 11.1 km/h - N/A   Overcast
6:20 AM 45.0°F / 7.2°C 44.1°F / 6.7°C 97% 30.47 in / 1031.7 hPa 7.0 miles / 11.3 kilometers North 4.6 mph / 7.4 km/h - N/A   Overcast
6:54 AM 45.0°F / 7.2°C 44.1°F / 6.7°C 97% 30.47 in / 1031.7 hPa 7.0 miles / 11.3 kilometers NNE 5.8 mph / 9.3 km/h - N/A   Overcast
7:28 AM 45.0°F / 7.2°C 43.0°F / 6.1°C 93% 30.46 in / 1031.4 hPa 6.0 miles / 9.7 kilometers NNE 9.2 mph / 14.8 km/h - N/A   Overcast
7:51 AM 44.6°F / 7.0°C 42.8°F / 6.0°C 93% 30.46 in / 1031.4 hPa 6.0 miles / 9.7 kilometers NNE 6.9 mph / 11.1 km/h - N/A   Overcast
7:54 AM 45.0°F / 7.2°C 43.0°F / 6.1°C 93% 30.46 in / 1031.5 hPa 7.0 miles / 11.3 kilometers NNE 5.8 mph / 9.3 km/h - N/A   Overcast
8:54 AM 45.0°F / 7.2°C 42.1°F / 5.6°C 90% 30.46 in / 1031.3 hPa 10.0 miles / 16.1 kilometers NE 9.2 mph / 14.8 km/h - N/A   Overcast
9:54 AM 46.0°F / 7.8°C 42.1°F / 5.6°C 86% 30.45 in / 1030.9 hPa 10.0 miles / 16.1 kilometers NE 9.2 mph / 14.8 km/h - N/A   Overcast
10:54 AM 46.9°F / 8.3°C 43.0°F / 6.1°C 86% 30.43 in / 1030.5 hPa 10.0 miles / 16.1 kilometers NNE 6.9 mph / 11.1 km/h - N/A   Overcast
11:54 AM 50.0°F / 10.0°C 43.0°F / 6.1°C 77% 30.41 in / 1029.7 hPa 10.0 miles / 16.1 kilometers North 10.4 mph / 16.7 km/h - N/A   Overcast
12:07 PM 51.1°F / 10.6°C 43.0°F / 6.1°C 74% 30.40 in / 1029.3 hPa 10.0 miles / 16.1 kilometers North 8.1 mph / 13.0 km/h - N/A   Overcast
12:54 PM 52.0°F / 11.1°C 41.0°F / 5.0°C 66% 30.37 in / 1028.2 hPa 10.0 miles / 16.1 kilometers ENE 10.4 mph / 16.7 km/h - N/A   Scattered Clouds
1:54 PM 53.1°F / 11.7°C 42.1°F / 5.6°C 66% 30.33 in / 1026.9 hPa 10.0 miles / 16.1 kilometers ENE 8.1 mph / 13.0 km/h - N/A   Partly Cloudy
2:54 PM 55.0°F / 12.8°C 42.1°F / 5.6°C 62% 30.30 in / 1025.9 hPa 10.0 miles / 16.1 kilometers Variable 4.6 mph / 7.4 km/h - N/A   Clear
3:54 PM 55.0°F / 12.8°C 43.0°F / 6.1°C 64% 30.28 in / 1025.4 hPa 10.0 miles / 16.1 kilometers North 8.1 mph / 13.0 km/h - N/A   Clear
4:54 PM 53.1°F / 11.7°C 42.1°F / 5.6°C 66% 30.26 in / 1024.5 hPa 10.0 miles / 16.1 kilometers NE 6.9 mph / 11.1 km/h - N/A   Clear
5:54 PM 48.0°F / 8.9°C 41.0°F / 5.0°C 77% 30.23 in / 1023.7 hPa 10.0 miles / 16.1 kilometers NNE 5.8 mph / 9.3 km/h - N/A   Clear
6:54 PM 46.0°F / 7.8°C 39.9°F / 4.4°C 79% 30.23 in / 1023.7 hPa 10.0 miles / 16.1 kilometers North 3.5 mph / 5.6 km/h - N/A   Clear
7:54 PM 42.1°F / 5.6°C 39.0°F / 3.9°C 89% 30.23 in / 1023.5 hPa 10.0 miles / 16.1 kilometers Calm Calm - N/A   Clear
8:54 PM 39.0°F / 3.9°C 37.9°F / 3.3°C 96% 30.23 in / 1023.6 hPa 9.0 miles / 14.5 kilometers Calm Calm - N/A   Clear
9:36 PM 36.0°F / 2.2°C 35.1°F / 1.7°C 97% 30.22 in / 1023.2 hPa 2.0 miles / 3.2 kilometers Calm Calm - N/A   Partly Cloudy
9:39 PM 37.0°F / 2.8°C 36.0°F / 2.2°C 96% 30.22 in / 1023.2 hPa 1.2 miles / 2.0 kilometers Calm Calm - N/A   Partly Cloudy
9:41 PM 37.0°F / 2.8°C 36.0°F / 2.2°C 96% 30.22 in / 1023.2 hPa 0.8 miles / 1.2 kilometers Calm Calm - N/A   Mist
9:54 PM 37.9°F / 3.3°C 37.0°F / 2.8°C 97% 30.22 in / 1023.3 hPa 0.5 miles / 0.8 kilometers Calm Calm - N/A Fog Fog
10:01 PM 36.0°F / 2.2°C 35.1°F / 1.7°C 97% 30.22 in / 1023.2 hPa 1.5 miles / 2.4 kilometers Calm Calm - N/A   Partly Cloudy
10:06 PM 36.0°F / 2.2°C 35.1°F / 1.7°C 97% 30.21 in / 1022.9 hPa 3.0 miles / 4.8 kilometers Calm Calm - N/A   Partly Cloudy
10:13 PM 34.0°F / 1.1°C 34.0°F / 1.1°C 100% 30.22 in / 1023.2 hPa 1.8 miles / 2.8 kilometers Calm Calm - N/A   Clear
10:15 PM 34.0°F / 1.1°C 34.0°F / 1.1°C 100% 30.22 in / 1023.2 hPa 1.0 miles / 1.6 kilometers Calm Calm - N/A   Mist
10:20 PM 35.1°F / 1.7°C 34.0°F / 1.1°C 96% 30.21 in / 1022.9 hPa 0.2 miles / 0.4 kilometers Calm Calm - N/A Fog Fog
10:35 PM 36.0°F / 2.2°C 35.1°F / 1.7°C 97% 30.22 in / 1023.2 hPa 1.0 miles / 1.6 kilometers Calm Calm - N/A   Mist
10:47 PM 34.0°F / 1.1°C 34.0°F / 1.1°C 100% 30.21 in / 1022.9 hPa 0.5 miles / 0.8 kilometers Calm Calm - N/A Fog Fog
10:54 PM 36.0°F / 2.2°C 36.0°F / 2.2°C 100% 30.21 in / 1023.0 hPa 0.5 miles / 0.8 kilometers Calm Calm - N/A Fog Fog
11:06 PM 33.1°F / 0.6°C 32.0°F / 0.0°C 96% 30.21 in / 1022.9 hPa 0.2 miles / 0.4 kilometers Calm Calm - N/A Fog Fog
11:25 PM 34.0°F / 1.1°C 33.1°F / 0.6°C 96% 30.20 in / 1022.6 hPa 0.8 miles / 1.2 kilometers Calm Calm - N/A   Mist
11:32 PM 34.0°F / 1.1°C 34.0°F / 1.1°C 100% 30.19 in / 1022.2 hPa 1.0 miles / 1.6 kilometers Calm Calm - N/A   Mist
11:39 PM 33.1°F / 0.6°C 32.0°F / 0.0°C 96% 30.19 in / 1022.2 hPa 0.2 miles / 0.4 kilometers Calm Calm - N/A Fog Fog
11:54 PM 34.0°F / 1.1°C 34.0°F / 1.1°C 100% 30.20 in / 1022.5 hPa 0.2 miles / 0.4 kilometers Calm Calm - N/A Fog Fog
Moon Phase
Feb. 15 Feb. 17 Feb. 25 Mar. 04 Mar. 11
Sunrise:07:15 AM (PST) Moon Rise:09:29 AM (PST)2/15
Sunset:05:36 PM (PST) Moon Set:No Moon Set/

Copyright © 2014 The Weather Underground, Inc.